Time,TemperatureF,DewpointF,PressureIn,WindDirection,WindDirectionDegrees,WindSpeedMPH,WindSpeedGustMPH,Humidity,HourlyPrecipIn,Conditions,Clouds,dailyrainin,SoftwareType,DateUTC
2013-02-13 00:30:00,31.0,22.0,-100.00,WSW,250,10.0,11.0,69,-99.99,,,-99.99,,2013-02-13 06:30:00,
2013-02-13 00:40:00,31.0,22.0,-100.00,WSW,240,11.0,13.0,69,-99.99,,,-99.99,,2013-02-13 06:40:00,
2013-02-13 01:00:00,30.0,22.0,-100.00,SW,235,10.0,13.0,71,-99.99,,,-99.99,,2013-02-13 07:00:00,
2013-02-13 01:10:00,30.0,22.0,-100.00,WSW,240,11.0,12.0,71,-99.99,,,-99.99,,2013-02-13 07:10:00,
2013-02-13 01:30:00,30.0,22.0,-100.00,WSW,240,11.0,14.0,72,-99.99,,,-99.99,,2013-02-13 07:30:00,
2013-02-13 01:40:00,30.0,22.0,-100.00,SW,235,10.0,13.0,73,-99.99,,,-99.99,,2013-02-13 07:40:00,
2013-02-13 02:00:00,30.0,22.0,-100.00,WSW,240,11.0,14.0,74,-99.99,,,-99.99,,2013-02-13 08:00:00,
2013-02-13 02:10:00,29.0,23.0,-100.00,WSW,240,11.0,13.0,75,-99.99,,,-99.99,,2013-02-13 08:10:00,
2013-02-13 02:30:00,29.0,22.0,-100.00,WSW,240,11.0,14.0,76,-99.99,,,-99.99,,2013-02-13 08:30:00,
2013-02-13 02:40:00,29.0,22.0,-100.00,WSW,245,10.0,11.0,76,-99.99,,,-99.99,,2013-02-13 08:40:00,
2013-02-13 03:00:00,29.0,23.0,-100.00,WSW,240,9.0,11.0,78,-99.99,,,-99.99,,2013-02-13 09:00:00,
2013-02-13 03:10:00,28.0,22.0,-100.00,WSW,245,9.0,11.0,78,-99.99,,,-99.99,,2013-02-13 09:10:00,
2013-02-13 03:30:00,27.0,22.0,-100.00,WSW,240,7.0,10.0,80,-99.99,,,-99.99,,2013-02-13 09:30:00,
2013-02-13 03:40:00,27.0,22.0,-100.00,WSW,245,6.0,11.0,81,-99.99,,,-99.99,,2013-02-13 09:40:00,
2013-02-13 03:52:00,29.0,23.0,-100.00,WSW,240,9.0,11.0,78,-99.99,,,-99.99,,2013-02-13 09:52:00,
2013-02-13 04:00:00,28.0,23.0,-100.00,West,265,7.0,11.0,82,-99.99,,,-99.99,,2013-02-13 10:00:00,
2013-02-13 04:10:00,28.0,24.0,-100.00,West,270,7.0,10.0,83,-99.99,,,-99.99,,2013-02-13 10:10:00,
2013-02-13 05:10:00,29.0,24.0,-100.00,WNW,295,8.0,10.0,83,-99.99,,,-99.99,,2013-02-13 11:10:00,
2013-02-13 05:40:00,28.0,24.0,-100.00,WNW,290,11.0,14.0,83,-99.99,,,-99.99,,2013-02-13 11:40:00,
2013-02-13 05:52:00,29.0,24.0,-100.00,WNW,295,8.0,10.0,83,-99.99,,,-99.99,,2013-02-13 11:52:00,
2013-02-13 06:02:00,29.0,24.0,-100.00,WNW,295,8.0,10.0,83,-99.99,,,-99.99,,2013-02-13 12:02:00,
2013-02-13 06:30:00,27.0,23.0,-100.00,WSW,255,5.0,6.0,84,-99.99,,,-99.99,,2013-02-13 12:30:00,
2013-02-13 06:32:00,28.0,24.0,-100.00,WNW,290,11.0,14.0,83,-99.99,,,-99.99,,2013-02-13 12:32:00,
2013-02-13 06:40:00,27.0,23.0,-100.00,West,265,8.0,9.0,84,-99.99,,,-99.99,,2013-02-13 12:40:00,
2013-02-13 07:00:00,27.0,23.0,-100.00,WSW,245,5.0,8.0,85,-99.99,,,-99.99,,2013-02-13 13:00:00,
2013-02-13 07:10:00,27.0,23.0,-100.00,SW,225,5.0,8.0,85,-99.99,,,-99.99,,2013-02-13 13:10:00,
2013-02-13 07:30:00,27.0,23.0,-100.00,SW,235,6.0,9.0,85,-99.99,,,-99.99,,2013-02-13 13:30:00,
2013-02-13 07:40:00,27.0,24.0,-100.00,SW,230,6.0,8.0,85,-99.99,,,-99.99,,2013-02-13 13:40:00,
2013-02-13 08:10:00,29.0,25.0,-100.00,SW,235,6.0,9.0,84,-99.99,,,-99.99,,2013-02-13 14:10:00,
2013-02-13 08:30:00,31.0,26.0,-100.00,SW,225,5.0,9.0,81,-99.99,,,-99.99,,2013-02-13 14:30:00,
2013-02-13 08:40:00,32.0,26.0,-100.00,SW,215,5.0,7.0,81,-99.99,,,-99.99,,2013-02-13 14:40:00,
2013-02-13 09:00:00,35.0,28.0,-100.00,West,275,8.0,11.0,75,-99.99,,,-99.99,,2013-02-13 15:00:00,
2013-02-13 09:10:00,36.0,28.0,-100.00,WNW,290,9.0,11.0,72,-99.99,,,-99.99,,2013-02-13 15:10:00,
2013-02-13 09:30:00,38.0,28.0,-100.00,West,265,8.0,13.0,67,-99.99,,,-99.99,,2013-02-13 15:30:00,
2013-02-13 09:41:00,39.0,28.0,-100.00,West,275,8.0,11.0,65,-99.99,,,-99.99,,2013-02-13 15:41:00,
2013-02-13 10:00:00,41.0,28.0,-100.00,West,265,9.0,13.0,60,-99.99,,,-99.99,,2013-02-13 16:00:00,
2013-02-13 10:10:00,41.0,28.0,-100.00,West,280,13.0,15.0,58,-99.99,,,-99.99,,2013-02-13 16:10:00,
2013-02-13 10:30:00,43.0,27.0,-100.00,WNW,290,11.0,16.0,53,-99.99,,,-99.99,,2013-02-13 16:30:00,
2013-02-13 10:40:00,43.0,27.0,-100.00,West,265,12.0,20.0,52,-99.99,,,-99.99,,2013-02-13 16:40:00,
2013-02-13 11:10:00,45.0,27.0,-100.00,WNW,285,15.0,19.0,48,-99.99,,,-99.99,,2013-02-13 17:10:00,
2013-02-13 11:30:00,46.0,27.0,-100.00,West,270,14.0,20.0,47,-99.99,,,-99.99,,2013-02-13 17:30:00,
2013-02-13 11:40:00,47.0,28.0,-100.00,West,280,14.0,19.0,46,-99.99,,,-99.99,,2013-02-13 17:40:00,
2013-02-13 14:10:00,55.0,26.0,-100.00,West,275,20.0,27.0,33,-99.99,,,-99.99,,2013-02-13 20:10:00,
2013-02-13 14:30:00,56.0,27.0,-100.00,West,265,16.0,27.0,33,-99.99,,,-99.99,,2013-02-13 20:30:00,
2013-02-13 14:42:00,56.0,27.0,-100.00,West,265,17.0,24.0,32,-99.99,,,-99.99,,2013-02-13 20:42:00,
2013-02-13 15:10:00,55.0,25.0,-100.00,WNW,285,21.0,26.0,32,-99.99,,,-99.99,,2013-02-13 21:10:00,
2013-02-13 16:40:00,53.0,25.0,-100.00,WNW,285,21.0,24.0,33,-99.99,,,-99.99,,2013-02-13 22:40:00,
2013-02-13 17:10:00,53.0,25.0,-100.00,West,275,14.0,21.0,34,-99.99,,,-99.99,,2013-02-13 23:10:00,
2013-02-13 17:30:00,51.0,24.0,-100.00,WNW,285,14.0,20.0,34,-99.99,,,-99.99,,2013-02-13 23:30:00,
2013-02-13 17:40:00,50.0,23.0,-100.00,WNW,285,11.0,16.0,34,-99.99,,,-99.99,,2013-02-13 23:40:00,
2013-02-13 18:00:00,49.0,23.0,-100.00,West,275,10.0,14.0,36,-99.99,,,-99.99,,2013-02-14 00:00:00,
2013-02-13 18:10:00,48.0,23.0,-100.00,West,280,10.0,13.0,36,-99.99,,,-99.99,,2013-02-14 00:10:00,
2013-02-13 18:30:00,48.0,22.0,-100.00,WSW,250,7.0,9.0,36,-99.99,,,-99.99,,2013-02-14 00:30:00,
2013-02-13 19:00:00,46.0,22.0,-100.00,WSW,255,9.0,10.0,38,-99.99,,,-99.99,,2013-02-14 01:00:00,
2013-02-13 19:10:00,46.0,22.0,-100.00,WSW,255,9.0,10.0,38,-99.99,,,-99.99,,2013-02-14 01:10:00,
2013-02-13 19:30:00,46.0,22.0,-100.00,WSW,245,9.0,11.0,38,-99.99,,,-99.99,,2013-02-14 01:30:00,
2013-02-13 20:00:00,45.0,22.0,-100.00,WSW,250,11.0,11.0,39,-99.99,,,-99.99,,2013-02-14 02:00:00,
2013-02-13 20:10:00,45.0,22.0,-100.00,WSW,245,11.0,11.0,39,-99.99,,,-99.99,,2013-02-14 02:10:00,
2013-02-13 20:30:00,44.0,21.0,-100.00,WSW,240,10.0,11.0,40,-99.99,,,-99.99,,2013-02-14 02:30:00,
2013-02-13 20:40:00,43.0,20.0,-100.00,SW,235,7.0,11.0,40,-99.99,,,-99.99,,2013-02-14 02:40:00,
2013-02-13 21:00:00,42.0,20.0,-100.00,SW,235,9.0,11.0,41,-99.99,,,-99.99,,2013-02-14 03:00:00,
2013-02-13 21:10:00,42.0,21.0,-100.00,SW,225,9.0,10.0,42,-99.99,,,-99.99,,2013-02-14 03:10:00,
2013-02-13 21:30:00,42.0,21.0,-100.00,WSW,240,11.0,12.0,42,-99.99,,,-99.99,,2013-02-14 03:30:00,
2013-02-13 21:40:00,42.0,22.0,-100.00,WSW,245,12.0,13.0,43,-99.99,,,-99.99,,2013-02-14 03:40:00,
2013-02-13 22:00:00,41.0,21.0,-100.00,SW,235,12.0,14.0,44,-99.99,,,-99.99,,2013-02-14 04:00:00,
2013-02-13 22:10:00,41.0,21.0,-100.00,WSW,240,11.0,14.0,44,-99.99,,,-99.99,,2013-02-14 04:10:00,
2013-02-13 22:30:00,41.0,21.0,-100.00,WSW,245,12.0,14.0,45,-99.99,,,-99.99,,2013-02-14 04:30:00,
2013-02-13 22:40:00,41.0,21.0,-100.00,WSW,245,14.0,16.0,45,-99.99,,,-99.99,,2013-02-14 04:40:00,
2013-02-13 23:00:00,40.0,21.0,-100.00,WSW,250,14.0,16.0,46,-99.99,,,-99.99,,2013-02-14 05:00:00,
2013-02-13 23:10:00,40.0,21.0,-100.00,WSW,255,14.0,16.0,47,-99.99,,,-99.99,,2013-02-14 05:10:00,
2013-02-13 23:40:00,39.0,22.0,-100.00,WSW,240,11.0,14.0,50,-99.99,,,-99.99,,2013-02-14 05:40:00,